Flag for U.S.A. Weather past 2 weeks in Flagstaff, Arizona, U.S.A.

Now
76 °F

Partly sunny.


Feels Like: 78 °F
Forecast: 53 / 78 °F
Wind: 7 mph from North

Location: Flagstaff Pulliam Airport

Current Time: Jul 31, 2015 at 1:03:21 PM

Latest Report: Jul 31, 2015 at 11:57 AM


Visibility: 10 mi

Pressure: 30.12 "Hg (23.66 "Hg at 2103m altitude)

Humidity: 37%

Dew point: 48 °F

Location of FlagstaffLocation

Historic Weather in Flagstaff — Graph

°F

Flagstaff temperature yesterday

Maximum temperature yesterday: 73 °F (at 1:57 PM)
Minimum temperature yesterday: 51 °F (at 5:57 AM)
Average temperature yesterday: 61 °F

Past Weeks' High & Low Weather Summary

 TemperatureHumidityPressure
High81 °F (Jul 25, 4:57 PM)100% (Jul 18, 9:04 PM)30.40 "Hg (Jul 18, 9:04 PM)
Low47 °F (Jul 27, 4:57 AM)12% (Jul 26, 4:57 PM)29.86 "Hg (Jul 26, 5:57 PM)
Average64 °F56%30.01 "Hg
* Reported Jul 16 11:57 AM — Jul 31 11:57 AM, Flagstaff, Weather by CustomWeather, © 2015

Note: Actual official high and low records may vary slightly from our data, if they occured in-between our weather recording intervals... More about our weather records

Advertising

Flagstaff weather history for previous 24 hours

 ConditionsComfort  
Time TempWeatherWind HumidityBarometerVisibility
11:57 AM
Fri, Jul 31
76 °FPartly sunny.7 mph37%30.12 "Hg10 mi
10:57 AM77 °FSunny.8 mph36%30.12 "Hg10 mi
9:57 AM74 °FScattered clouds.8 mph46%30.14 "Hg10 mi
8:57 AM71 °FSunny.No wind57%30.15 "Hg10 mi
7:57 AM65 °FSunny.5 mph73%30.17 "Hg10 mi
6:57 AM53 °FSunny.No wind96%30.19 "Hg10 mi
5:57 AM50 °FPassing clouds.No wind96%30.16 "Hg10 mi
4:57 AM50 °FClear.No wind100%30.15 "Hg10 mi
3:57 AM50 °FClear.No wind100%30.17 "Hg10 mi
2:57 AM52 °FClear.No wind97%30.14 "Hg10 mi
1:57 AM52 °FClear.No wind100%30.14 "Hg10 mi
12:57 AM53 °FClear.No wind96%30.16 "Hg10 mi
11:57 PM
Thu, Jul 30
54 °FPassing clouds.No wind100%30.18 "Hg10 mi
10:57 PM55 °FPassing clouds.No wind96%30.18 "Hg10 mi
9:57 PM56 °FPassing clouds.No wind100%30.18 "Hg10 mi
8:57 PM58 °FClear.No wind97%30.16 "Hg10 mi
7:57 PM60 °FMostly cloudy.6 mph90%30.14 "Hg10 mi
6:57 PM64 °FMostly cloudy.6 mph81%30.14 "Hg10 mi
5:57 PM70 °FLight rain. Mostly cloudy.10 mph57%30.12 "Hg10 mi
4:57 PM69 °FMostly cloudy.3 mph73%30.12 "Hg10 mi
3:57 PM65 °FMore clouds than sun.9 mph91%30.14 "Hg10 mi
2:57 PM72 °FMostly cloudy.9 mph49%30.12 "Hg10 mi
1:57 PM73 °FPartly sunny.10 mph50%30.12 "Hg10 mi
Weather by CustomWeather, © 2015

See weather overviewHow to use our weather pages